Torna al catalogo

STARLINK-35350

AttivoComunicazioniVLEO
NORAD 66187·PAYLOAD·🇺🇸 United States

Lanciato Oct 26, 2025 da Cape Canaveral Space Force Station

Loading…

Prossimi Passaggi (prossime 24 ore)

TLE

AggiornatoSource: CelesTrak SupGP

Epoca: Sep 14, 2026, 23:21 UTC

1 66187C 25243L   26257.97340278  .00050111  00000+0  14805-2 0  2570
2 66187  53.1577  83.8955 0001267  79.5000 307.8990 15.34366365    12

Traccia STARLINK-35350 in tempo reale con AllMySat

Download on the App Store